Date,TemperatureHighF,TemperatureAvgF,TemperatureLowF,DewpointHighF,DewpointAvgF,DewpointLowF,HumidityHigh,HumidityAvg,HumidityLow,PressureMaxIn,PressureMinIn,WindSpeedMaxMPH,WindSpeedAvgMPH,GustSpeedMaxMPH,PrecipitationSumIn
2013-1-1,49.6,46.5,42.9,48.5,40.5,28.6,96,81,51,30.08,29.92,0,0,0,0.01
2013-1-2,49.2,44.5,39.9,48.1,41.8,37.4,96,90,76,30.17,29.89,2,0,6,0.00
2013-1-3,45.7,40.1,30.4,38.6,35.7,28.6,94,85,68,30.25,30.13,0,0,0,0.00
2013-1-4,48.5,38.4,26.3,29.2,25.3,21.1,95,63,35,30.30,30.17,4,1,9,0.00
2013-1-5,47.9,36.2,26.4,32.0,26.3,23.0,88,69,39,30.38,30.25,2,1,4,0.00
2013-1-6,49.8,42.3,34.3,39.3,35.4,29.1,93,77,60,30.23,30.04,0,0,3,0.00
2013-1-7,49.2,36.9,28.4,33.6,30.4,26.9,96,80,52,30.42,30.16,3,0,9,0.00
2013-1-8,53.8,41.2,29.5,40.0,35.1,27.7,96,81,51,30.45,30.34,0,0,3,0.00
2013-1-9,65.5,48.3,34.9,49.7,42.5,33.5,96,82,55,30.43,30.33,2,0,4,0.00
2013-1-10,63.1,52.0,44.8,46.3,44.1,39.2,96,76,52,30.51,30.39,0,0,5,0.00
2013-1-11,51.9,47.5,42.1,50.5,43.2,32.2,97,86,54,30.41,30.13,0,0,0,0.01
2013-1-12,68.9,56.1,49.2,62.8,54.3,48.4,97,94,79,30.14,30.08,0,0,4,0.00
2013-1-13,73.2,61.3,52.6,61.8,57.0,51.8,97,87,65,30.11,30.02,1,0,7,0.00
2013-1-14,68.4,63.3,58.9,62.6,59.2,55.8,93,87,79,30.12,30.05,0,0,0,0.00
2013-1-15,62.7,47.2,44.9,60.0,45.2,43.3,96,93,84,30.21,30.04,0,0,0,0.01
2013-1-16,49.6,46.3,43.5,48.8,45.4,42.4,97,96,96,30.04,29.96,0,0,0,0.00
2013-1-17,50.7,46.5,32.9,49.9,45.5,31.6,97,96,93,30.10,29.87,0,0,0,0.02
2013-1-18,42.8,34.9,29.0,33.3,29.8,25.5,96,83,50,30.53,30.14,2,0,9,0.00
2013-1-19,49.9,35.9,26.4,34.1,28.8,24.6,95,78,42,30.49,30.15,0,0,5,0.00
2013-1-20,61.5,46.4,35.9,36.3,33.8,31.4,87,64,32,30.13,29.96,5,0,12,0.00
2013-1-21,56.0,42.4,29.3,34.0,28.3,16.7,96,63,30,30.07,29.85,2,0,6,0.00
2013-1-22,41.8,33.1,24.7,20.6,8.8,-1.8,60,38,19,30.27,29.94,8,1,13,0.00
2013-1-23,39.5,28.2,18.9,19.5,12.4,1.4,83,54,28,30.37,30.06,5,1,11,0.00
2013-1-24,36.0,31.2,23.6,24.7,14.0,2.2,82,51,25,30.51,29.95,6,2,15,0.00
2013-1-25,28.1,25.3,21.1,26.1,15.2,2.7,92,68,36,30.52,30.11,0,0,0,0.01
2013-1-26,37.3,30.4,26.7,31.8,27.5,25.0,94,89,70,30.39,30.08,3,0,6,0.00
2013-1-27,39.5,31.0,24.2,28.4,25.8,22.5,94,82,57,30.59,30.39,2,0,5,0.00
2013-1-28,50.4,41.9,31.3,45.8,36.3,28.0,94,81,62,30.49,30.21,1,0,3,0.00
2013-1-29,70.4,56.8,46.4,57.0,50.9,44.8,95,82,59,30.21,30.05,5,0,10,0.00
2013-1-30,70.3,65.7,59.2,63.9,60.8,56.0,94,85,73,30.04,29.36,0,0,0,0.01
2013-1-31,63.4,46.4,33.1,60.4,31.4,18.2,93,59,30,30.00,29.43,12,2,17,0.00
2013-2-1,39.8,34.8,26.9,28.2,14.8,2.5,80,46,24,30.38,29.87,7,3,16,0.00
2013-2-2,43.5,33.1,20.2,35.8,14.4,8.3,78,48,28,30.40,30.02,2,1,5,0.00
2013-2-3,48.6,41.3,33.2,36.5,29.8,25.0,90,65,42,30.01,29.83,5,0,10,0.00
2013-2-4,48.0,37.7,27.0,27.2,23.4,18.1,87,59,35,30.13,29.98,2,0,6,0.00
2013-2-5,60.1,46.2,37.9,36.0,32.0,27.5,84,59,37,30.00,29.85,2,1,6,0.00
2013-2-6,60.4,43.7,30.6,36.4,29.6,22.5,96,64,23,30.23,29.95,2,1,9,0.00
2013-2-7,48.8,42.3,36.3,41.9,36.7,31.5,95,81,65,30.31,29.98,0,0,0,0.01
2013-2-8,54.2,45.3,39.5,44.9,39.7,27.9,96,82,55,30.02,29.79,3,2,10,0.01
2013-2-9,51.0,39.0,29.3,29.7,24.7,17.3,90,60,27,30.33,30.02,6,2,10,0.00
2013-2-10,52.8,44.8,26.7,41.6,25.4,20.6,89,49,28,30.48,30.19,1,0,6,0.01
2013-2-11,61.5,55.6,44.1,59.0,53.5,41.5,97,93,86,30.19,29.89,0,0,0,0.00
2013-2-12,59.9,52.2,43.3,53.3,37.1,26.0,93,61,28,30.06,29.89,5,0,11,0.00
2013-2-13,48.0,45.9,43.5,46.5,43.7,36.1,96,92,70,29.92,29.61,0,0,0,0.00
2013-2-14,51.6,40.5,30.9,36.0,33.0,29.4,96,77,49,30.05,29.82,2,0,7,0.00
2013-2-15,63.4,42.8,29.4,38.7,32.6,28.1,96,72,31,30.07,29.91,3,0,7,0.00
2013-2-16,44.2,36.7,31.5,35.5,32.3,27.8,95,85,64,29.95,29.82,0,0,0,0.00
2013-2-17,38.8,30.1,23.6,26.5,14.9,6.2,82,56,27,30.26,29.91,9,1,17,0.00
2013-2-18,55.3,34.2,18.8,26.3,18.8,12.6,92,59,24,30.41,30.25,3,0,9,0.00
2013-2-19,52.2,43.3,34.9,50.3,38.7,26.2,96,84,63,30.23,29.84,0,0,0,0.00
2013-2-20,54.5,38.4,27.6,35.2,23.6,13.0,95,62,22,30.13,29.94,4,0,13,0.00
2013-2-21,57.0,39.8,25.7,24.8,20.0,15.4,85,49,22,30.24,30.09,3,0,6,0.00
2013-2-22,42.5,36.4,32.4,35.2,31.9,21.4,95,85,43,30.33,30.14,0,0,0,0.00
2013-2-23,43.3,39.9,36.0,42.5,38.8,34.7,97,96,95,30.10,29.79,0,0,0,0.01
2013-2-24,64.0,48.1,35.9,46.9,39.0,28.1,97,75,30,30.01,29.78,5,1,11,0.01
2013-2-25,42.5,37.3,33.1,32.1,24.8,20.9,92,61,44,30.21,30.02,3,3,3,0.00
2013-2-26,56.6,45.0,36.0,55.8,41.0,24.6,97,87,60,30.12,29.52,3,3,3,0.01
2013-2-27,63.4,48.7,41.9,43.9,40.5,37.0,96,76,41,29.76,29.59,6,2,9,0.00
2013-2-28,49.1,40.9,31.6,40.2,32.6,26.2,96,75,41,29.83,29.67,0,0,0,0.00
2013-3-1,49.2,38.9,28.4,31.2,28.2,25.7,94,68,42,29.89,29.82,7,1,13,0.00
2013-3-2,48.8,37.7,26.9,31.8,25.4,19.6,94,64,38,29.90,29.78,5,2,11,0.00
2013-3-3,48.5,35.8,26.3,22.8,19.9,16.8,83,55,31,29.96,29.82,6,2,12,0.00
2013-3-4,53.1,36.2,24.5,25.4,17.1,12.2,75,50,21,30.09,29.95,7,2,15,0.00
2013-3-5,49.8,41.6,32.8,44.0,35.7,25.1,96,81,46,30.06,29.55,1,1,1,0.00
2013-3-6,46.4,42.2,37.3,44.1,32.7,26.5,96,71,51,30.00,29.48,13,2,22,0.00
2013-3-7,52.6,41.3,29.1,31.5,28.6,25.7,92,63,42,30.21,30.00,9,1,14,0.03
2013-3-8,56.9,42.0,27.0,28.1,25.1,21.7,91,56,26,30.26,30.12,9,2,15,0.00
2013-3-9,64.2,44.7,28.8,32.7,27.9,24.2,90,58,22,30.32,30.21,2,1,6,0.38
2013-3-10,69.9,49.0,30.4,36.5,27.8,20.5,95,53,16,30.30,30.18,0,0,0,0.00
2013-3-11,71.3,56.0,38.6,52.6,44.8,28.2,89,67,45,30.20,29.90,1,0,2,0.00
2013-3-12,72.0,60.9,48.6,62.4,52.7,31.8,96,76,50,29.93,29.73,6,1,13,0.44
2013-3-13,59.9,46.8,34.6,35.0,26.9,17.4,90,50,26,30.12,29.92,5,1,16,0.00
2013-3-14,56.0,40.8,30.0,26.4,19.8,14.3,74,46,21,30.22,30.08,6,1,16,0.00
2013-3-15,64.8,46.2,26.9,34.9,28.4,21.4,88,55,27,30.17,29.86,4,1,10,0.00
2013-3-16,79.4,62.8,49.9,49.1,43.8,35.4,72,52,30,29.85,29.62,3,1,11,0.00
2013-3-17,59.8,51.2,40.8,52.1,44.2,37.1,92,78,61,30.15,29.80,2,2,2,0.00
2013-3-18,43.8,40.8,38.0,41.3,39.1,36.7,96,94,91,30.17,29.83,2,1,2,0.35
2013-3-19,69.8,52.3,40.8,47.2,33.1,11.4,96,59,17,29.99,29.79,5,1,14,0.01
2013-3-20,58.7,46.5,36.9,29.5,18.4,11.1,73,35,20,30.09,29.74,3,2,7,0.00
2013-3-21,48.5,39.7,31.3,30.7,18.9,10.2,78,45,26,29.96,29.71,7,2,17,0.00
2013-3-22,55.6,38.6,24.2,27.9,16.3,10.9,74,44,19,30.07,29.95,5,3,12,0.00
2013-3-23,56.0,44.6,35.5,32.8,27.6,19.5,81,54,28,30.03,29.88,1,1,4,0.00
2013-3-24,40.5,38.1,34.3,38.3,35.4,30.0,95,90,76,29.90,29.56,0,0,0,0.62
2013-3-25,51.6,41.2,36.2,38.0,30.1,22.0,95,68,38,29.80,29.54,9,1,16,0.00
2013-3-26,49.9,42.1,31.3,29.9,26.9,24.8,80,56,40,30.09,29.81,5,1,12,0.00
2013-3-27,55.3,41.2,29.0,27.7,24.2,19.4,89,55,27,30.21,30.09,11,1,18,0.00
2013-3-28,58.4,42.8,27.6,27.5,24.4,21.7,88,53,25,30.27,30.13,5,1,15,0.00
2013-3-29,61.8,44.8,28.5,32.8,27.1,24.0,91,56,24,30.31,30.16,4,0,9,0.00
2013-3-30,71.3,53.4,38.6,44.0,35.8,25.5,85,56,24,30.22,30.06,3,0,7,0.00
2013-3-31,67.8,56.8,48.5,59.0,51.7,42.2,96,84,64,30.06,29.78,1,0,8,0.56
2013-4-1,75.4,60.7,51.3,55.1,46.0,33.8,97,64,28,29.97,29.78,6,1,15,0.02
2013-4-2,62.7,49.3,35.8,33.5,28.6,23.1,86,49,23,30.14,29.99,6,1,13,0.00
2013-4-3,62.6,49.2,41.3,33.2,23.1,16.3,66,39,20,30.27,30.14,3,0,10,0.00
2013-4-4,48.8,42.4,39.5,40.1,31.4,21.8,95,68,42,30.33,29.91,3,1,12,0.70
2013-4-5,62.7,46.6,39.6,47.3,42.0,38.6,96,86,54,29.96,29.85,3,0,7,0.03
2013-4-6,69.6,54.3,38.9,40.2,32.9,25.0,95,49,22,30.25,30.00,3,1,12,0.00
2013-4-7,77.4,56.1,35.9,46.6,38.9,33.3,91,58,27,30.25,30.09,4,0,6,0.00
2013-4-8,81.6,64.7,53.9,56.4,52.4,49.1,94,67,39,30.14,30.02,2,0,6,0.00
2013-4-9,87.0,72.2,59.3,58.6,56.5,55.0,90,61,34,30.15,30.02,3,0,5,0.00
2013-4-10,91.6,73.1,62.3,61.0,58.3,56.1,87,62,31,30.07,29.91,3,0,9,0.00
2013-4-11,84.1,72.3,61.5,65.6,59.8,56.7,91,67,42,29.97,29.77,2,0,8,0.00
2013-4-12,83.0,73.2,62.1,71.3,62.6,53.1,96,71,51,29.78,29.57,3,0,10,0.22
2013-4-13,78.1,63.2,50.2,54.8,42.7,36.5,78,51,23,29.98,29.73,7,0,9,0.00
2013-4-14,86.3,63.7,45.2,54.9,44.9,36.0,96,58,19,30.08,29.98,6,0,6,0.00
2013-4-15,75.4,64.5,58.0,58.4,56.0,50.7,95,75,50,30.18,29.99,8,0,9,0.02
2013-4-16,81.6,65.6,56.7,61.7,57.9,55.0,96,78,46,30.27,30.17,5,0,5,0.00
2013-4-17,84.5,69.3,57.6,64.6,61.1,55.9,96,78,48,30.20,30.08,4,0,5,0.00
2013-4-18,83.4,69.8,60.2,63.4,59.7,56.9,94,72,43,30.17,30.01,6,0,9,0.00
2013-4-19,81.8,70.6,65.0,69.6,65.1,60.6,96,84,58,30.02,29.69,6,0,10,0.61
2013-4-20,66.4,55.5,45.7,63.8,43.0,30.5,96,67,30,30.25,29.78,9,0,10,0.05
2013-4-21,65.2,51.6,40.9,43.2,40.2,36.9,95,68,39,30.47,30.25,9,0,10,0.00
2013-4-22,63.9,50.0,37.5,46.9,38.6,31.2,92,67,38,30.46,30.24,11,0,11,0.03
2013-4-23,69.4,54.6,46.8,52.3,47.5,44.9,94,79,46,30.25,30.10,6,0,7,0.01
2013-4-24,80.7,62.4,48.5,58.6,53.2,47.0,97,75,42,30.13,29.94,5,0,5,0.00
2013-4-25,75.1,61.6,49.8,56.6,47.1,38.2,89,61,32,30.25,29.99,8,0,10,0.00
2013-4-26,77.2,59.6,48.5,52.1,43.8,31.7,96,64,22,30.40,30.25,6,0,7,0.00
2013-4-27,78.8,62.1,51.7,52.9,47.3,38.7,87,62,27,30.35,30.23,4,0,5,0.00
2013-4-28,60.1,57.5,54.7,57.0,51.7,42.4,96,81,60,30.24,30.08,3,0,4,0.73
2013-4-29,71.6,62.1,54.8,66.2,59.8,53.7,97,92,71,30.08,29.94,3,0,3,0.90
2013-4-30,66.3,60.8,55.4,60.2,57.9,53.4,97,90,76,30.15,29.98,4,0,5,0.01
2013-5-1,61.3,58.6,55.4,58.0,55.9,53.7,96,91,84,30.29,30.13,10,0,10,0.00
2013-5-2,65.0,59.0,53.3,57.6,55.1,51.6,94,87,74,30.30,30.23,6,0,9,0.00
2013-5-3,72.5,58.1,48.0,58.1,49.6,42.8,96,76,48,30.24,30.14,9,0,11,0.00
2013-5-4,67.8,56.6,49.9,53.5,48.3,43.4,87,74,54,30.19,30.05,10,1,10,0.00
2013-5-5,59.9,55.7,50.4,55.5,50.9,45.7,91,84,77,30.08,29.96,10,0,12,0.00
2013-5-6,66.4,60.4,56.3,65.4,58.9,54.3,97,95,87,29.98,29.80,9,0,10,0.45
2013-5-7,67.3,55.9,50.7,60.8,54.3,49.4,97,95,63,29.90,29.83,3,0,4,0.00
2013-5-8,73.5,65.0,52.5,61.8,57.9,50.5,97,79,59,29.98,29.90,3,0,4,0.05
2013-5-9,83.8,65.8,55.0,61.7,57.5,53.4,97,78,39,30.04,29.95,5,0,5,0.00
2013-5-10,87.4,69.9,55.4,65.7,60.3,54.0,97,75,41,30.04,29.92,4,0,4,0.00
2013-5-11,84.5,71.5,65.8,68.3,63.4,58.1,96,77,49,29.93,29.76,4,0,4,0.03
2013-5-12,76.8,65.7,53.6,64.3,51.9,37.5,96,65,32,30.00,29.76,9,0,9,0.01
2013-5-13,70.8,55.9,45.1,45.6,40.3,30.5,92,61,26,30.16,30.00,6,0,7,0.00
2013-5-14,75.3,56.5,40.3,47.2,41.4,33.0,96,62,26,30.23,30.05,4,0,5,0.00
2013-5-15,89.9,70.1,55.6,64.7,55.3,42.0,78,61,37,30.06,29.87,4,0,4,0.00
2013-5-16,85.5,73.8,64.0,65.1,61.5,57.7,90,67,41,29.95,29.86,4,0,7,0.00
2013-5-17,90.3,73.6,61.8,67.8,62.7,58.5,95,71,37,30.05,29.95,3,0,4,0.00
2013-5-18,77.7,69.6,62.6,71.1,65.1,60.3,95,86,61,30.13,30.04,3,0,4,0.38
2013-5-19,78.3,69.5,65.5,72.0,67.1,64.0,97,92,73,30.13,30.03,4,0,6,0.20
2013-5-20,72.8,69.3,66.8,71.9,68.2,65.6,97,96,96,30.09,30.00,1,0,2,0.72
2013-5-21,86.1,72.6,67.6,74.5,69.1,66.7,97,90,59,30.03,29.92,3,0,3,0.00
2013-5-22,85.7,73.6,68.3,72.5,68.0,64.6,96,83,56,30.01,29.88,3,0,4,0.00
2013-5-23,85.3,73.2,69.1,70.4,67.8,64.7,94,84,56,29.93,29.79,5,0,5,0.00
2013-5-24,74.4,64.7,50.2,67.3,54.1,36.5,96,72,33,30.16,29.79,17,0,17,0.01
2013-5-25,77.0,58.2,43.2,52.0,43.1,34.1,96,63,23,30.25,30.11,5,0,7,0.00
2013-5-26,77.4,59.9,46.7,54.3,47.8,39.9,94,69,28,30.26,30.15,4,0,6,0.00
2013-5-27,84.1,65.2,49.8,59.2,53.5,48.4,97,70,30,30.26,30.14,4,0,4,0.00
2013-5-28,87.0,72.0,61.6,69.3,62.9,55.6,95,74,51,30.23,30.12,4,0,4,0.00
2013-5-29,89.7,73.6,63.2,68.7,63.6,60.8,95,73,44,30.22,30.13,4,0,5,0.00
2013-5-30,90.1,74.3,63.1,67.7,64.1,58.4,96,73,36,30.25,30.14,4,0,4,0.00
2013-5-31,89.9,75.9,66.0,71.4,66.6,61.8,96,75,42,30.20,30.08,4,0,4,0.00
2013-6-1,90.7,76.8,67.3,70.0,66.6,62.5,95,73,44,30.12,30.00,4,0,5,0.00
2013-6-2,88.2,76.0,67.3,71.6,67.2,64.1,96,76,52,30.03,29.87,5,0,7,0.05
2013-6-3,80.3,73.0,67.1,74.5,70.2,65.7,97,91,68,29.93,29.80,4,0,5,0.37
2013-6-4,81.4,69.8,64.8,69.0,64.6,61.4,97,85,53,30.08,29.91,5,0,7,0.00
2013-6-5,84.9,70.6,62.7,66.4,61.9,56.7,96,76,43,30.12,29.99,8,0,8,0.05
2013-6-6,76.3,70.6,66.0,72.9,66.6,58.2,96,87,69,30.02,29.80,9,0,10,0.61
2013-6-7,75.8,70.5,68.8,74.9,69.6,67.6,98,97,96,29.83,29.46,7,0,12,2.99
2013-6-8,84.9,72.7,67.1,72.5,68.9,66.3,98,89,59,30.07,29.78,4,0,4,0.04
2013-6-9,69.4,68.8,68.1,67.6,67.2,66.4,95,95,94,30.07,30.06,0,0,0,0.00
2013-6-10,83.8,75.0,70.9,78.6,72.8,69.7,97,93,79,30.08,29.87,3,0,6,0.38
2013-6-11,87.4,75.1,68.8,70.1,67.7,64.1,96,80,49,29.93,29.87,5,0,5,0.00
2013-6-12,91.0,75.8,64.5,76.1,69.9,63.3,97,83,55,29.95,29.83,4,0,5,0.05
2013-6-13,95.9,78.8,67.6,77.3,71.6,61.4,96,81,45,29.84,29.57,14,0,17,0.06
2013-6-14,81.4,69.3,60.4,66.7,60.8,55.5,97,77,43,29.99,29.70,7,0,7,0.05
2013-6-15,86.1,70.3,57.8,66.1,61.4,56.5,97,76,40,30.10,29.98,4,0,4,0.00
2013-6-16,88.0,73.8,60.7,71.9,64.4,54.5,94,73,54,30.11,29.98,5,0,7,0.05
2013-6-17,87.4,75.8,69.9,74.4,68.6,63.8,90,79,57,30.01,29.90,2,0,3,0.00
2013-6-18,83.0,73.9,69.1,74.5,70.4,67.3,96,89,72,29.94,29.72,11,0,11,0.78
2013-6-19,81.8,71.7,65.3,70.6,66.8,64.1,97,85,59,30.10,29.84,5,0,5,0.02
2013-6-20,86.1,71.6,63.4,68.1,63.0,56.6,96,77,44,30.22,30.09,6,0,6,0.00
2013-6-21,87.2,70.3,57.0,67.1,59.2,52.0,97,71,35,30.24,30.16,4,0,6,0.04
2013-6-22,82.8,73.5,68.3,72.0,68.5,65.3,93,85,67,30.18,30.08,7,0,9,0.00
2013-6-23,87.4,75.2,68.4,74.8,70.4,66.3,96,86,58,30.19,30.10,3,0,5,0.00
2013-6-24,86.7,77.0,71.1,76.2,72.2,69.3,96,86,64,30.18,30.06,6,0,6,0.00
2013-6-25,91.2,76.3,69.8,77.1,70.8,67.7,95,84,60,30.11,29.98,3,0,5,0.00
2013-6-26,92.9,76.4,69.3,76.4,70.8,64.9,96,84,50,30.01,29.86,9,0,11,0.26
2013-6-27,89.5,75.9,67.4,77.5,72.1,66.2,97,89,62,29.89,29.68,4,0,5,0.00
2013-6-28,91.8,77.8,70.6,76.5,72.3,69.2,96,84,53,29.72,29.54,6,0,7,0.63
2013-6-29,84.1,74.7,68.3,76.2,71.7,67.2,97,91,71,29.70,29.58,3,0,5,0.43
2013-6-30,87.4,75.3,70.8,77.7,72.5,68.6,97,92,67,29.84,29.68,7,0,9,0.22
2013-7-1,81.1,74.2,70.1,76.0,72.2,69.2,98,94,81,29.97,29.81,5,0,5,0.54
2013-7-2,75.8,73.2,71.6,73.9,72.0,70.3,97,96,93,30.16,29.96,6,0,6,0.36
2013-7-3,85.3,76.1,72.5,78.4,73.9,70.9,98,93,74,30.22,30.12,5,0,7,0.03
2013-7-4,90.1,78.4,72.5,77.0,72.9,70.5,97,85,53,30.25,30.15,5,0,7,0.00
2013-7-5,90.1,78.9,71.8,77.7,73.1,70.2,97,84,59,30.25,30.13,4,0,6,0.00
2013-7-6,87.4,77.6,72.3,78.6,73.1,69.1,96,87,64,30.23,30.09,2,0,4,0.11
2013-7-7,89.0,77.4,69.9,78.1,72.8,68.7,97,86,65,30.17,30.03,3,0,4,0.05
2013-7-8,89.7,78.5,72.3,76.1,73.0,68.8,96,84,57,30.14,30.06,3,0,5,0.00
2013-7-9,89.9,76.9,71.8,78.4,72.9,69.3,96,88,65,30.13,30.04,5,0,5,0.00
2013-7-10,89.3,77.6,72.8,78.2,73.5,68.7,96,88,65,30.08,29.92,5,0,6,0.06
2013-7-11,81.8,74.8,72.3,76.0,72.8,70.7,97,93,78,29.95,29.85,4,0,4,0.23
2013-7-12,76.1,72.9,71.3,73.0,70.9,69.1,97,93,83,30.00,29.84,7,0,7,0.05
2013-7-13,76.8,73.4,70.3,75.6,71.8,68.6,96,95,89,30.15,29.99,5,0,5,0.15
2013-7-14,88.0,77.0,70.1,76.9,72.5,69.2,98,87,61,30.27,30.15,7,0,8,0.00
2013-7-15,91.6,77.9,69.4,76.4,72.1,68.2,97,84,52,30.29,30.22,4,0,4,0.00
2013-7-16,94.5,78.4,68.8,78.4,72.0,67.6,97,83,49,30.25,30.14,3,0,3,0.00
2013-7-17,94.7,80.6,74.0,77.8,74.1,70.7,97,83,49,30.19,30.07,5,0,7,0.06
2013-7-18,92.9,80.6,74.2,78.7,75.2,72.3,96,84,57,30.10,30.00,2,0,3,0.00
2013-7-19,91.6,80.1,74.7,78.8,74.8,70.9,97,85,61,30.07,29.95,5,0,5,0.06
2013-7-20,90.3,79.4,74.4,78.0,73.6,71.6,92,83,60,30.00,29.89,4,0,4,0.00
2013-7-21,89.7,77.8,72.8,77.3,73.2,70.2,96,87,64,29.97,29.87,2,0,3,0.10
2013-7-22,87.6,77.6,71.6,77.1,73.3,70.4,97,87,68,29.92,29.79,3,0,4,0.00
2013-7-23,90.7,79.7,74.4,74.8,72.3,69.8,92,79,55,29.82,29.69,4,0,5,0.00
2013-7-24,94.5,79.3,70.6,76.0,71.4,66.2,96,79,44,29.81,29.70,4,0,7,0.06
2013-7-25,78.3,73.0,67.8,71.6,69.0,65.7,96,87,73,30.00,29.78,5,0,5,0.07
2013-7-26,86.5,71.9,62.3,70.5,65.4,61.2,97,82,47,30.08,29.99,4,0,6,0.06
2013-7-27,89.3,73.9,67.1,73.3,68.9,65.6,97,86,50,30.03,29.91,4,0,5,0.10
2013-7-28,88.4,75.9,69.4,75.1,71.0,67.1,97,86,54,29.97,29.89,3,0,3,0.05
2013-7-29,88.2,74.8,68.6,72.9,69.7,65.9,97,85,51,30.12,29.96,5,0,7,0.08
2013-7-30,88.2,72.9,62.3,72.3,67.0,61.0,97,84,47,30.20,30.10,4,0,6,0.00
2013-7-31,81.2,74.9,70.6,75.5,71.3,68.7,97,89,72,30.11,29.98,4,0,6,0.18
2013-8-1,85.1,74.5,70.4,76.1,71.4,68.7,97,90,69,30.00,29.83,1,0,3,0.07
2013-8-2,88.8,75.4,67.4,75.2,70.3,66.2,97,86,55,29.99,29.87,3,0,4,0.36
2013-8-3,88.0,76.1,71.6,78.1,72.7,69.8,97,90,64,29.98,29.86,5,0,6,0.95
2013-8-4,85.3,74.3,66.6,73.0,68.9,61.4,98,85,55,30.00,29.85,5,0,9,0.00
2013-8-5,82.2,71.6,64.3,70.5,65.7,59.5,97,83,53,30.07,29.97,5,0,6,0.00
2013-8-6,80.5,73.1,67.6,73.2,68.3,63.8,96,85,72,30.03,29.97,2,0,4,0.11
2013-8-7,86.5,75.1,68.4,74.2,70.6,66.9,96,86,60,30.07,29.99,1,0,4,0.00
2013-8-8,88.8,77.6,70.4,75.9,72.1,68.6,96,84,60,30.04,29.96,3,0,3,0.00
2013-8-9,91.4,79.7,73.7,77.7,74.0,71.8,96,83,61,30.02,29.95,5,0,5,0.00
2013-8-10,95.1,79.5,73.3,79.4,74.2,71.5,96,85,53,30.07,29.96,4,0,6,0.01
2013-8-11,93.2,78.8,71.8,79.4,73.6,70.6,97,85,57,30.08,29.97,2,0,5,0.06
2013-8-12,94.5,80.4,73.7,75.7,73.1,68.9,97,80,46,30.01,29.90,5,0,5,0.00
2013-8-13,88.6,77.1,70.9,80.0,74.1,69.7,97,91,70,29.93,29.74,5,0,5,0.31
2013-8-14,74.4,71.3,61.8,72.7,66.1,59.8,95,84,73,30.07,29.79,5,0,6,0.00
2013-8-15,81.1,66.6,58.6,64.6,60.0,56.8,96,81,45,30.14,30.05,6,0,6,0.00
2013-8-16,69.3,64.3,58.9,64.4,61.2,57.8,97,90,77,30.15,30.07,3,0,4,0.00
2013-8-17,71.6,67.3,62.3,70.4,65.8,60.8,97,95,89,30.15,30.08,4,0,4,0.18
2013-8-18,84.3,72.9,68.3,73.8,69.0,65.9,98,88,61,30.17,30.08,5,0,6,0.01
2013-8-19,73.2,69.7,66.9,71.8,68.4,65.3,97,96,92,30.17,30.07,4,0,5,0.40
2013-8-20,82.0,74.0,67.8,74.7,71.1,66.9,98,91,71,30.16,30.08,3,0,4,0.00
2013-8-21,89.3,75.9,70.3,77.6,72.7,68.9,97,90,64,30.19,30.08,3,0,3,0.02
2013-8-22,91.0,77.0,69.4,76.1,71.2,67.1,98,84,48,30.12,29.96,3,0,4,0.00
2013-8-23,89.0,76.1,68.6,75.4,70.7,66.1,97,84,55,30.04,29.90,6,0,7,0.00
2013-8-24,86.7,72.4,64.7,66.4,62.5,56.4,94,74,38,30.27,30.04,7,0,9,0.00
2013-8-25,82.4,68.7,60.1,64.1,60.4,54.9,97,78,42,30.37,30.26,5,0,9,0.00
2013-8-26,87.6,68.0,55.9,64.5,59.0,54.8,98,77,35,30.30,30.09,0,0,2,0.00
2013-8-27,89.9,73.3,61.8,73.9,66.3,58.8,93,80,49,30.10,29.93,3,0,3,0.00
2013-8-28,79.8,74.9,69.3,76.1,72.5,68.1,97,92,81,29.96,29.84,2,0,3,0.05
2013-8-29,88.8,78.7,72.3,74.9,72.0,69.2,94,81,57,29.98,29.81,7,0,9,0.00
2013-8-30,90.7,74.6,65.5,71.8,67.2,63.2,97,80,42,30.04,29.91,4,0,5,0.06
2013-8-31,92.1,76.9,67.4,73.9,69.4,65.8,97,80,47,29.95,29.84,4,0,4,0.00
2013-9-4,85.3,74.5,66.4,72.9,69.6,64.9,96,86,62,30.06,29.90,0,0,6,0.05
2013-9-5,90.7,74.1,66.1,70.1,65.6,56.9,97,78,39,30.07,30.00,0,0,5,0.00
2013-9-6,85.3,70.0,60.9,66.1,62.8,59.6,96,80,46,30.14,30.05,1,0,6,0.05
2013-9-7,86.5,69.5,59.3,67.5,62.8,58.2,97,82,45,30.11,29.95,0,0,3,0.00
2013-9-8,89.5,72.5,62.7,71.1,64.8,60.6,97,80,38,29.95,29.88,0,0,5,0.05
2013-9-9,89.9,73.7,64.2,71.6,67.5,63.0,97,83,54,30.12,29.96,0,0,5,0.00
2013-9-10,93.6,80.0,67.3,73.8,69.7,66.1,97,73,45,30.21,30.11,4,0,4,0.00
2013-9-11,90.7,74.9,66.8,75.1,69.0,65.3,97,83,52,30.18,30.05,3,0,4,0.04
2013-9-12,91.8,77.6,70.1,75.1,70.1,67.0,91,79,52,30.05,29.77,3,0,4,0.00
2013-9-13,87.6,74.1,65.3,69.7,64.5,53.6,96,75,41,29.86,29.72,5,0,5,0.05
2013-9-14,81.8,66.4,57.8,58.9,53.6,48.2,91,66,37,30.11,29.86,7,0,9,0.00
2013-9-15,83.4,65.8,54.2,65.2,58.8,52.8,97,80,44,30.21,30.09,4,0,4,0.05
2013-9-16,86.3,72.6,64.0,72.3,65.4,58.3,97,80,46,30.17,30.00,5,0,12,0.15
2013-9-17,80.9,66.5,58.9,60.5,55.9,50.3,89,71,36,30.29,30.16,7,0,7,0.00
2013-9-18,58.7,57.6,56.5,52.9,52.3,51.8,85,82,79,30.27,30.26,3,0,3,0.00
2013-10-2,85.7,67.1,57.0,65.5,60.6,55.9,98,82,46,30.11,30.01,0,0,1,0.00
2013-10-3,86.7,68.5,58.7,68.1,62.8,57.6,97,84,48,30.10,30.03,0,0,0,0.02
2013-10-4,87.6,71.0,61.8,69.2,64.6,60.6,97,82,48,30.11,30.02,0,0,3,0.02
2013-10-5,89.0,71.2,61.2,72.1,65.6,60.0,97,84,50,30.09,30.00,0,0,0,0.02
2013-10-6,84.3,72.2,64.0,72.5,68.0,62.5,97,87,60,30.04,29.91,0,0,13,0.02
2013-10-7,73.0,70.4,63.5,72.1,69.0,62.3,97,95,92,29.96,29.83,0,0,6,0.41
2013-10-8,63.2,58.8,56.9,62.0,50.8,46.5,96,75,64,30.17,29.96,6,0,12,0.38
2013-10-9,61.3,58.1,54.5,56.3,52.9,49.2,96,83,73,30.15,30.06,10,0,11,0.09
2013-10-10,60.4,56.7,53.6,59.1,55.4,52.2,97,95,92,30.06,29.90,6,0,9,0.05
2013-10-11,65.5,61.4,58.6,62.4,59.7,57.8,97,94,85,29.94,29.88,4,0,6,0.02
2013-10-12,67.9,63.8,59.9,64.5,61.8,58.5,96,93,85,30.05,29.93,4,0,5,0.00
2013-10-13,66.6,63.8,61.6,63.7,62.0,60.5,96,94,89,30.17,30.05,9,0,9,0.07
2013-10-14,64.2,61.7,56.7,62.2,60.1,55.3,97,95,89,30.21,30.15,5,0,6,0.10
2013-10-15,70.8,61.2,53.1,62.8,57.6,52.1,97,89,68,30.17,30.02,6,0,9,0.00
2013-10-16,68.4,64.1,60.5,63.6,61.5,59.1,97,91,78,30.03,29.93,2,0,2,0.02
2013-10-17,73.9,66.0,59.8,66.6,62.8,58.8,98,90,71,29.95,29.82,3,0,5,0.02
2013-10-18,67.1,61.9,55.7,64.4,55.4,46.3,95,80,54,30.02,29.85,5,0,6,0.00
2013-10-19,69.3,62.9,59.0,64.9,60.4,56.4,95,92,82,29.95,29.79,3,0,3,0.00
2013-10-20,68.8,54.5,45.7,58.5,48.1,41.0,96,81,41,30.10,29.88,6,0,6,0.02
2013-10-21,70.4,52.0,40.8,54.0,46.8,39.8,98,85,43,30.14,29.97,4,0,4,0.01
2013-10-22,62.6,56.5,51.0,59.5,54.7,49.6,97,94,86,29.98,29.78,0,0,1,0.01
2013-10-23,67.1,58.1,48.3,58.2,48.6,33.7,97,74,35,29.98,29.66,9,0,12,0.02
2013-10-24,59.9,46.6,37.0,42.0,37.1,32.1,94,72,39,30.16,29.98,6,0,6,0.00
2013-10-25,57.0,45.1,36.0,41.5,34.5,26.2,92,69,32,30.34,30.16,7,0,9,0.00
2013-10-26,59.9,42.7,30.7,40.1,33.9,29.2,96,74,35,30.34,30.05,4,0,6,0.00
2013-10-27,67.4,51.8,41.1,49.0,42.6,37.0,95,73,39,30.11,30.02,4,0,5,0.00
2013-10-28,66.8,54.7,43.9,57.3,51.0,42.5,97,88,63,30.23,30.09,2,0,2,0.00
2013-10-29,68.3,57.5,50.4,59.0,53.7,49.3,97,88,60,30.31,30.21,3,0,4,0.00
2013-10-30,70.1,60.5,52.2,61.8,56.8,51.1,98,88,63,30.27,30.13,1,0,2,0.00
2013-10-31,73.0,64.1,56.5,64.0,58.3,55.1,97,83,61,30.16,29.87,3,0,5,0.00
2013-11-1,72.7,67.1,59.5,67.3,64.4,58.4,97,91,75,29.86,29.65,5,0,7,0.34
2013-11-2,67.6,58.9,47.7,59.0,52.6,42.1,97,82,42,29.93,29.67,12,0,12,0.00
2013-11-3,61.3,48.8,40.5,45.5,41.3,36.4,97,78,40,30.34,29.93,10,0,11,0.00
2013-11-4,53.8,43.7,36.3,39.3,35.5,30.2,95,75,42,30.53,30.34,6,0,9,0.00
2013-11-5,57.8,47.8,36.9,49.4,42.4,33.9,92,82,65,30.52,30.40,10,0,10,0.00
2013-11-6,68.8,55.0,44.1,58.6,50.7,42.8,97,86,62,30.40,30.08,3,0,4,0.00
2013-11-7,66.3,59.1,45.8,63.4,53.7,33.8,98,83,51,30.09,29.89,9,0,13,0.00
2013-11-8,54.2,43.6,34.4,37.2,32.6,24.1,94,69,32,30.31,30.08,9,0,10,0.00
2013-11-9,57.0,43.6,31.2,40.6,34.5,27.9,97,74,36,30.36,30.16,4,0,5,0.00
2013-11-10,68.3,51.0,38.3,43.2,38.1,30.5,95,65,27,30.22,30.03,10,0,11,0.00
2013-11-11,56.3,44.1,33.4,36.9,32.7,27.6,94,67,34,30.33,30.11,4,0,5,0.00
2013-11-12,60.4,42.4,35.0,42.4,33.5,17.2,94,73,39,30.40,30.03,14,0,14,0.00
2013-11-13,43.5,33.7,27.5,25.1,19.9,14.3,86,59,31,30.52,30.39,10,0,10,0.00
2013-11-14,54.2,36.9,25.1,30.0,25.2,20.4,94,68,28,30.46,30.32,7,0,7,0.00
2013-11-15,60.1,44.3,29.1,46.9,37.2,26.4,94,78,43,30.34,30.19,2,0,2,0.00
2013-11-16,67.1,55.4,48.0,58.1,52.0,46.4,97,89,69,30.25,30.17,5,0,6,0.00
2013-11-17,70.1,60.6,51.4,65.1,57.4,50.0,97,90,70,30.19,29.86,3,0,3,0.00
2013-11-18,71.8,63.7,53.1,66.1,54.0,30.7,97,73,37,29.94,29.76,11,0,12,0.00
2013-11-19,53.9,47.2,40.9,34.7,30.1,25.6,71,52,34,30.29,29.94,12,0,12,0.00
2013-11-20,52.0,43.9,37.5,38.4,32.3,27.1,85,64,48,30.42,30.29,7,0,9,0.00
2013-11-21,59.9,49.1,40.1,49.3,42.4,36.5,91,78,63,30.48,30.36,7,0,7,0.00
2013-11-22,68.8,53.3,47.1,59.9,49.8,44.6,95,88,72,30.37,30.05,6,0,6,0.00
2013-11-23,61.2,54.4,42.8,59.8,44.3,20.1,96,71,37,30.15,30.01,7,0,10,0.00
2013-11-24,42.8,32.8,25.3,24.8,11.1,0.2,71,42,22,30.53,30.14,12,1,14,0.00
2013-11-25,41.1,30.4,20.3,23.3,14.8,4.4,85,56,23,30.58,30.35,3,0,3,0.00
2013-11-26,64.7,46.1,35.9,63.9,38.0,13.6,98,76,38,30.35,29.54,7,0,13,0.00
2013-11-27,52.3,40.3,30.1,51.2,36.7,17.6,97,88,57,30.15,29.47,12,1,17,0.00
2013-11-28,41.2,31.2,23.8,26.9,21.4,15.8,92,69,39,30.47,30.15,5,0,12,0.00
2013-11-29,47.9,34.3,24.8,29.5,25.6,22.2,95,74,38,30.62,30.45,8,0,8,0.00
2013-11-30,47.1,35.0,26.4,33.9,28.2,23.4,93,77,56,30.63,30.35,5,0,6,0.00
2013-12-1,54.4,39.6,27.8,40.1,32.8,26.3,96,79,41,30.35,30.00,3,0,4,0.00
2013-12-2,56.3,44.2,36.5,43.7,39.0,34.4,96,83,54,30.00,29.80,3,0,3,0.00
2013-12-3,57.3,45.6,32.5,47.1,40.7,31.2,97,84,60,29.97,29.85,3,0,4,0.00
2013-12-4,63.9,56.8,52.3,56.7,52.4,46.1,92,85,75,30.05,29.95,2,0,2,0.00
2013-12-5,66.1,60.8,51.9,63.4,59.1,50.5,97,94,87,30.10,30.01,0,0,5,0.00
2013-12-6,76.5,68.8,63.5,63.9,62.6,61.1,94,81,63,30.05,29.94,1,0,11,0.00
2013-12-7,68.1,49.4,42.8,64.2,44.3,32.2,95,83,66,30.43,29.96,2,1,13,0.00
2013-12-8,42.6,36.4,34.0,33.6,28.3,0.0,96,77,62,30.45,30.29,1,0,9,0.00
2013-12-9,45.8,44.3,34.6,45.0,43.5,33.6,97,97,96,30.27,30.04,1,0,6,0.00
2013-12-10,46.7,42.6,30.0,46.2,40.9,28.1,98,94,78,30.31,29.89,6,0,9,0.00
2013-12-11,44.8,33.8,25.6,33.1,27.3,21.7,96,79,44,30.45,30.26,4,0,4,0.00
2013-12-12,41.6,32.7,26.0,28.3,22.8,10.7,94,71,28,30.40,30.25,10,0,10,0.00
2013-12-13,47.9,33.7,23.0,32.7,24.2,16.5,94,72,32,30.38,30.25,4,0,6,0.00
2013-12-14,47.0,40.9,36.5,42.3,36.7,27.6,96,86,50,30.27,29.75,7,0,7,0.00
2013-12-15,51.4,42.4,32.2,45.0,37.1,28.4,97,83,55,30.06,29.68,9,0,11,0.00
2013-12-16,51.0,38.3,28.8,36.9,31.9,27.3,96,79,50,30.16,30.05,4,0,5,0.00
2013-12-17,56.3,46.1,32.5,39.6,35.9,30.6,96,69,49,30.10,29.85,9,0,11,0.00
2013-12-18,46.8,38.3,28.7,37.6,24.6,15.3,87,61,28,30.27,30.00,11,0,13,0.00
2013-12-19,57.5,41.8,27.3,32.5,27.2,23.5,93,61,27,30.31,30.20,4,0,6,0.00
2013-12-20,64.2,53.3,43.1,53.5,45.5,32.1,92,75,58,30.22,30.09,4,0,5,0.00
2013-12-21,71.6,60.5,49.9,64.7,55.7,46.8,92,85,65,30.12,30.01,4,0,5,0.00
2013-12-22,77.4,69.8,63.7,66.3,64.0,60.3,96,83,62,30.09,29.99,7,0,8,0.00
2013-12-23,66.6,59.9,45.2,65.7,58.8,41.3,97,96,85,30.12,29.97,10,0,10,0.00
2013-12-24,45.2,40.6,29.5,42.5,29.8,13.6,92,66,47,30.44,30.10,10,0,11,0.00
2013-12-25,36.8,29.1,23.9,22.2,15.4,7.9,87,58,30,30.54,30.38,4,0,5,0.00
2013-12-26,47.6,35.0,25.0,34.0,28.9,21.1,94,80,46,30.38,30.23,5,0,5,0.00
2013-12-27,48.8,34.1,25.4,30.3,25.4,17.8,96,75,29,30.45,30.34,4,0,4,0.00
2013-12-28,55.9,39.3,25.4,39.0,29.7,21.7,96,73,28,30.39,30.13,4,0,4,0.00
2013-12-29,61.8,48.6,42.6,61.2,47.0,36.1,98,94,68,30.13,29.66,10,0,13,0.00
2013-12-30,52.9,43.6,35.0,46.6,39.6,34.0,98,86,63,30.12,29.90,5,0,6,0.00
2013-12-31,49.4,40.9,30.7,36.7,31.2,20.4,92,70,32,30.33,30.09,10,0,13,0.00
2014-1-1,51.0,38.2,30.0,33.6,29.2,22.6,95,73,35,30.40,30.12,4,0,5,0.00
2014-1-2,49.6,43.1,36.6,45.7,39.3,32.5,96,87,68,30.12,29.56,8,0,10,0.00